Knapp, WV

2:34 AM EDT on May 01, 2017 (GMT -0400)
MMARW2 | | Change Station

Elev 3079 ft 38.22 °N, 80.04 °W | Updated 55 minutes ago

Light Rain
Light Rain
64.0 °F
Feels Like 64.0 °F
N
9.0
Wind Variable Wind from SSW

Today
High -- | Low -- °F
--% Chance of Precip.
Yesterday
High -- | Low -- °F
Precip. -- in
Pressure 30.09 in
Visibility 0.2 miles
Clouds Overcast 200 ft
Dew Point 59.0 °F
Humidity 83%
Rainfall in
Snow Depth Not available.
6:23 AM 8:11 PM
Waxing Crescent, 30% visible
METAR KHSP 010615Z AUTO 17007G15KT M1/4SM -RA OVC002 17/16 A3009 RMK AO2
Pressure 30.09 in
Visibility 0.2 miles
Clouds Overcast 200 ft
Dew Point 59.0 °F
Humidity 83%
Rainfall in
Snow Depth Not available.
6:23 AM 8:11 PM
Waxing Crescent, 30% visible
METAR KHSP 010615Z AUTO 17007G15KT M1/4SM -RA OVC002 17/16 A3009 RMK AO2

Get Severe Weather Alerts

Thanks for signing up!

Be on the lookout for a verification email in your inbox.

You'll start receiving the daily forecast at 8 AM.

×

10-Day Weather Forecast

Almanac

Astronomy

May. 01, 2017 Rise Set
Actual Time
Civil Twilight
Nautical Twilight
Astronomical Twilight
Moon
Length of Visible Light
Length of Day
Tomorrow will be .
, % of the Moon is Illuminated

Today's Extremes

State Highs State Lows

Community

WunderPhotos

WunderBlog® & News

Nearby

Air Quality

  Air Quality AQ Index Pollutant
Not available.

Snow Depth

Station Depth Elevation

Earthquake Activity

City Distance Mag. Time & Date
Minimum magnitude displayed is 2.5.

Coastal Water Temperatures

Place Temperature

Stations

Nearby Weather Stations

Station Location Temp. Windchill Dew Point Humidity Wind Precip. Elev Updated Type
                   

Watches & Warnings

There are currently no watches in effect.